TimeEST,TemperatureF,Dew PointF,Humidity,Sea Level PressureIn,VisibilityMPH,Wind Direction,Wind SpeedMPH,Gust SpeedMPH,PrecipitationIn,Events,Conditions,WindDirDegrees,DateUTC
12:00 AM,28.4,21.2,74,30.61,15.0,North,4.6,-,N/A,,Mostly Cloudy,10,2012-11-19 05:00:00
1:00 AM,28,21,67,30.60,15,North,3.5,,,,Overcast,10,2012-11-19 06:00:00
1:00 AM,28.4,21.2,74,30.60,15.0,North,3.5,-,N/A,,Overcast,10,2012-11-19 06:00:00
2:00 AM,26.6,21.2,80,30.59,15.0,NNE,8.1,-,N/A,,Mostly Cloudy,20,2012-11-19 07:00:00
3:00 AM,24.8,19.4,80,30.59,15.0,North,5.8,-,N/A,,Mostly Cloudy,360,2012-11-19 08:00:00
4:00 AM,24.8,19.4,80,30.57,15.0,NNE,3.5,-,N/A,,Mostly Cloudy,20,2012-11-19 09:00:00
5:00 AM,24.8,19.4,80,30.56,15.0,NNE,5.8,-,N/A,,Partly Cloudy,30,2012-11-19 10:00:00
6:00 AM,24.8,19.4,80,30.56,15.0,NNE,4.6,-,N/A,,Partly Cloudy,30,2012-11-19 11:00:00
7:00 AM,24,19,74,30.55,10,NNE,5.8,,,,Clear,20,2012-11-19 12:00:00
7:00 AM,23.0,19.4,86,30.55,10.0,NNE,5.8,-,N/A,,Partly Cloudy,20,2012-11-19 12:00:00
8:00 AM,26.6,21.2,80,30.55,15.0,NNE,6.9,-,N/A,,Partly Cloudy,30,2012-11-19 13:00:00
9:00 AM,32.0,24.8,75,30.53,15.0,NNE,4.6,-,N/A,,Partly Cloudy,20,2012-11-19 14:00:00
10:00 AM,33.8,26.6,75,30.53,12.0,North,4.6,-,N/A,,Partly Cloudy,10,2012-11-19 15:00:00
11:00 AM,35.6,26.6,70,30.51,15.0,ENE,3.5,-,N/A,,Partly Cloudy,60,2012-11-19 16:00:00
12:00 PM,41.0,26.6,57,30.47,15.0,WSW,2.3,-,N/A,,Partly Cloudy,240,2012-11-19 17:00:00
1:00 PM,41,31,58,30.45,15,South,3.5,,,,Clear,180,2012-11-19 18:00:00
1:00 PM,41.0,32.0,70,30.45,12.0,South,3.5,-,N/A,,Partly Cloudy,180,2012-11-19 18:00:00
2:00 PM,42.8,30.2,61,30.42,12.0,SE,3.5,-,N/A,,Partly Cloudy,130,2012-11-19 19:00:00
3:00 PM,42.8,30.2,61,30.41,15.0,SSE,2.3,-,N/A,,Scattered Clouds,160,2012-11-19 20:00:00
4:00 PM,39.2,28.4,65,30.39,15.0,South,3.5,-,N/A,,Partly Cloudy,170,2012-11-19 21:00:00
5:00 PM,37.4,30.2,75,30.38,15.0,ESE,2.3,-,N/A,,Partly Cloudy,110,2012-11-19 22:00:00
6:00 PM,33.8,28.4,81,30.38,12.0,East,2.3,-,N/A,,Partly Cloudy,80,2012-11-19 23:00:00
7:00 PM,32,27,74,30.36,15,ENE,2.3,,,,Clear,70,2012-11-20 00:00:00
7:00 PM,32.0,26.6,80,30.36,15.0,ENE,2.3,-,N/A,,Partly Cloudy,70,2012-11-20 00:00:00
8:00 PM,30.2,24.8,80,30.35,15.0,North,3.5,-,N/A,,Partly Cloudy,360,2012-11-20 01:00:00
9:00 PM,28.4,24.8,86,30.33,12.0,NNW,2.3,-,N/A,,Partly Cloudy,340,2012-11-20 02:00:00
10:00 PM,26.6,24.8,93,30.32,8.0,NNW,3.5,-,N/A,,Clear,340,2012-11-20 03:00:00
11:00 PM,30.2,28.4,93,30.31,6.0,North,3.5,-,N/A,,Clear,360,2012-11-20 04:00:00